AirNav   Air Wisconsin Up To $57,000 Bonus
 
 589 users online  

CYAM Sault Ste Marie Airport
Sault Ste Marie, Ontario, Canada

GOING TO SAULT STE MARIE?


FAA INFORMATION EFFECTIVE 25 MARCH 2021

The information below comes from the U.S. Federal Aviation Administration (FAA). The FAA is not the official source of data for facilities located outside the United States, and THESE RECORDS ARE LIKELY NOT COMPLETE OR CORRECT.

Location

FAA Identifier: CYAM
Lat/Long: 46-29-06.0000N 084-30-34.0000W
46-29.100000N 084-30.566667W
46.4850000,-84.5094444
(estimated)
Elevation: 630 ft. / 192 m (estimated)
Variation: 07W ()
From city: 8 miles WSW of SAULT STE MARIE,
Time zone: UTC -4 (UTC -5 during Standard Time)
Zip code: 49710

Airport Operations

Airport use: Open to the public
Activation date: 03/2005
Control tower: no
ARTCC: TORONTO CENTER
FSS: LONDON FIC FLIGHT SERVICE STATION
Attendance: 
Segmented circle: no

Airport Communications

WX ASOS at ANJ (6 nm E): 118.375 (906-253-9523)
WX AWOS-3PT at CIU (14 nm S): 127.575 (906-495-7134)

Nearby radio navigation aids

VOR radial/distance  VOR name  Freq  Var
SSMr303/9.2SAULT STE MARIE VOR/DME112.2004W

 
NDB name  Hdg/Dist  Freq  Var  ID
KOLOE015/9.240007WCI -.-. ..

Airport Services

Runway Information

Runway 4/22

Dimensions: 6000 x 200 ft. / 1829 x 61 m
Surface: asphalt
RUNWAY 4  RUNWAY 22
Traffic pattern: leftleft

Runway 12/30

Dimensions: 6000 x 200 ft. / 1829 x 61 m
Surface: asphalt
RUNWAY 12  RUNWAY 30
Traffic pattern: leftleft

Airport Ownership and Management from official FAA records

Ownership: Publicly-owned

Instrument Procedures

There are no published instrument procedures at CYAM.

Some nearby airports with instrument procedures:

KANJ - Sault Ste Marie Municipal Airport/Sanderson Field (6 nm E)
KCIU - Chippewa County International Airport (14 nm S)
83D - Mackinac County Airport (37 nm S)
KMCD - Mackinac Island Airport (38 nm S)
KERY - Luce County Airport (41 nm W)
 
Loc | Ops | Rwys | IFR | FBO | Links
Com | Nav | Svcs | Stats | Notes
Aerial photo
No photo
 
Airport distance calculator
Flying to Sault Ste Marie Airport? Find the distance to fly.

From to CYAM

Sunrise and sunset
Times for 13-Apr-2021
 Local
(UTC-4)
 Zulu
(UTC)
Morning civil twilight06:2410:24
Sunrise06:5610:56
Sunset20:2200:22
Evening civil twilight20:5300:53

Current date and time
Zulu (UTC)  13-Apr-2021 05:14:38
Local (UTC-4)  13-Apr-2021 01:14:38
 
METAR
CYAM 130450Z 13005KT 080V170 1 1/4SM -SHDZRA BR SCT002 OVC004 08/07 A2983 RMK FG3ST1CF4 CIG VRB 3-5 CVCTV CLD EMBD SLP108
KANJ 
6nm E 
130455Z AUTO 13009KT 4SM BR OVC003 08/07 A2983 RMK AO2 RAB06E18 SLP102 P0000 T00830067 401560083
KCIU 
14nm S 
130456Z AUTO 15009KT 1 3/4SM -RA BR OVC002 06/06 A2984 RMK AO2 RAE02B47 SLP106 P0000 T00610061 401330061
TAF
CYAM 130138Z 1302/1314 12007KT 4SM -RA BR BKN012 OVC025 TEMPO 1302/1303 1SM -SHRA BR BKN007 OVC012 FM130300 10006KT 1SM -RA BR OVC004 TEMPO 1303/1308 4SM -RA BR OVC006 FM130800 19006KT 11/2SM -DZ BR OVC003 TEMPO 1308/1313 3SM BR FM131300 20007KT 6SM BR BKN007 OVC010 RMK NXT FCST BY 130800Z
NOTAMs
Click for the latest NOTAMs
NOTAMs are issued by the DoD/FAA and will open in a separate window not controlled by AirNav.

 

 
 

Would you like to see your business listed on this page?

 If your business provides an interesting product or service to pilots, flight crews, aircraft, or users of the Sault Ste Marie Airport, you should consider listing it here.  To start the listing process, click on the button below
 
Add a business
 

Other Pages about Sault Ste Marie Airport

Update a link
 
Copyright © AirNav, LLC. All rights reserved. Privacy Policy  Contact